Volver al catálogo

DELTA 1 DEB

ActivoSSO
NORAD 26823·DEBRIS·🇺🇸 United States

Lanzado Jun 12, 1975 desde Vandenberg Space Force Base

Loading…

Próximos Pases (próximas 24 horas)

TLE

ActualizadoSource: Space-Track

Época: Sep 14, 2026, 04:18 UTC

1 26823U 75052KD  26257.17939771  .00000941  00000-0  14104-2 0  9992
2 26823 100.0009 137.3689 0045682 281.5695 230.6901 13.55616149718650

Sigue DELTA 1 DEB en tiempo real con AllMySat

Download on the App Store